星链-2361 (STARLINK-2361 )

导读 | 星芒AI

STARLINK-2361 是 SpaceX Starlink 卫星互联网项目中的第 2361 颗卫星,属于低轨卫星群,旨在为全球用户提供高速互联网服务。该卫星采用可重复使用设计,配备先进通信设备,支持宽带数据传输。它于近期由猎鹰 9 号火箭发射入轨,加入 Starlink 群体,提升网络覆盖与连接稳定性。该项目持续扩展,致力于实现全球无缝网络接入。

基本信息
目录编号:
47901
目录名称:
STARLINK-2361
国际标识:
2021-021AT
轨道中心:
EARTH
卫星名称:
星链-2361
卫星全名:
星链-2361 (STARLINK-2361 )
卫星状态:
在轨 (已飞行1691 天)
发射日期:
2021-03-14 UTC
国别 :
美国 (US)
星等 :
--
轨道信息
数据来源 国际轨道数据 AOE轨道数据
星历时间 2025-10-30T02:52:25+0800
12小时前
查看轨道信息
2025-10-25T20:00:00+0800
4天前
查看轨道信息
半长轴 6925.313km 6925.356km
偏心率 0.0001509 0.000238
轨道倾角 53.053° 53.048°
近地点辐角 93.001° 73.822°
升交点赤经 129.354° 148.596°
平近点角 267.115° 68.215°
近地点 546.132km 545.572km
远地点 548.224km 548.87km
周期 95.591分钟 95.592分钟
每日圈数 15.064117 15.063976
详细信息
固有亮度:
5
最大亮度:
2.5
卫星平台:
Starlink V1.0
覆盖范围:
全球
运营商:
太空探索技术公司
运营商所在国:
美国
制造商(研发单位):
太空探索技术公司
制造商所在国:
美国
使用方式:
暂无
卫星简介
星链(Starlink)计划是由太空探索技术公司(SpaceX)提出的一个巨型低轨卫星互联网星座项目,计划在2019年至2024年间在太空搭建由约1.2万颗卫星组成的“星链”网络,其中1584颗将部署在地球上空550千米处的近地轨道,并从2020年开始工作。该卫星仍在工作。
2D轨道图
3D轨道图
轨道高度分析图
轨道倾角分析图
轨道综合分析图
查看轨道综合分析图